IWY742 TBPB-TLPC

Flight info

Callsign IWY742
Flight time 0h 32m
Altitude 12000
Route BGI R750 BNE SLU
Aircraft AT46/M-SDFGHIRWY/LB1

Departure

Time 2026-04-23 18:42
Airport Grantley Adams International Airport (TBPB)

Arrival

Time 2026-04-23 19:15
Airport George F. L. Charles Airport (TLPC)
Time Latitude Longitude Altitude Speed Heading
2026-04-23 18:27 13.07734 -59.48952 174 ft 0 kts 342°
2026-04-23 18:37 13.07742 -59.48955 174 ft 2 kts 333°
2026-04-23 18:37 13.07740 -59.48960 174 ft 1 kts 215°
2026-04-23 18:37 13.07719 -59.48954 174 ft 8 kts 163°
2026-04-23 18:38 13.07682 -59.48996 174 ft 11 kts 255°
2026-04-23 18:38 13.07660 -59.49082 174 ft 14 kts 256°
2026-04-23 18:38 13.07637 -59.49178 174 ft 14 kts 256°
2026-04-23 18:38 13.07613 -59.49276 174 ft 15 kts 256°
2026-04-23 18:39 13.07586 -59.49383 174 ft 16 kts 256°
2026-04-23 18:39 13.07559 -59.49494 174 ft 16 kts 257°
2026-04-23 18:39 13.07533 -59.49608 174 ft 16 kts 256°
2026-04-23 18:39 13.07504 -59.49722 174 ft 17 kts 256°
2026-04-23 18:40 13.07477 -59.49838 174 ft 17 kts 256°
2026-04-23 18:40 13.07449 -59.49953 174 ft 17 kts 256°
2026-04-23 18:40 13.07421 -59.50069 174 ft 16 kts 256°
2026-04-23 18:40 13.07402 -59.50152 174 ft 8 kts 257°
2026-04-23 18:41 13.07365 -59.50200 174 ft 9 kts 184°
2026-04-23 18:41 13.07309 -59.50188 175 ft 7 kts 166°
2026-04-23 18:41 13.07264 -59.50177 175 ft 6 kts 166°
2026-04-23 18:41 13.07235 -59.50146 175 ft 8 kts 84°
2026-04-23 18:42 13.07299 -59.49878 175 ft 77 kts 76°
2026-04-23 18:42 13.07493 -59.49135 305 ft 125 kts 78°
2026-04-23 18:42 13.07722 -59.48233 902 ft 132 kts 75°
2026-04-23 18:42 13.07970 -59.47355 1804 ft 126 kts 72°
2026-04-23 18:43 13.08268 -59.46436 2462 ft 140 kts 73°
2026-04-23 18:43 13.08387 -59.45460 3089 ft 141 kts 109°
2026-04-23 18:43 13.07659 -59.44832 3713 ft 147 kts 169°
2026-04-23 18:43 13.06707 -59.45167 4356 ft 154 kts 224°
2026-04-23 18:44 13.06065 -59.46047 5016 ft 155 kts 233°
2026-04-23 18:44 13.05681 -59.47054 5651 ft 157 kts 272°
2026-04-23 18:44 13.05882 -59.48140 6278 ft 157 kts 285°
2026-04-23 18:44 13.06344 -59.49186 6588 ft 171 kts 295°
2026-04-23 18:45 13.06903 -59.50326 6873 ft 182 kts 296°
2026-04-23 18:45 13.07503 -59.51473 7326 ft 182 kts 299°
2026-04-23 18:45 13.08203 -59.52557 7781 ft 183 kts 302°
2026-04-23 18:45 13.08941 -59.53621 8202 ft 183 kts 303°
2026-04-23 18:46 13.09685 -59.54688 8632 ft 183 kts 303°
2026-04-23 18:46 13.10427 -59.55733 9093 ft 184 kts 303°
2026-04-23 18:46 13.11197 -59.56807 9532 ft 185 kts 304°
2026-04-23 18:46 13.12006 -59.57811 9921 ft 187 kts 314°
2026-04-23 18:47 13.13070 -59.58609 10279 ft 190 kts 325°
2026-04-23 18:47 13.13999 -59.59556 10525 ft 195 kts 293°
2026-04-23 18:47 13.14403 -59.60886 10821 ft 191 kts 280°
2026-04-23 18:47 13.14621 -59.62138 11494 ft 173 kts 277°
2026-04-23 18:48 13.14780 -59.63400 11672 ft 188 kts 273°
2026-04-23 18:48 13.14986 -59.64779 11792 ft 200 kts 280°
2026-04-23 18:48 13.15218 -59.66214 11900 ft 209 kts 286°
2026-04-23 18:48 13.15800 -59.67647 11948 ft 225 kts 292°
2026-04-23 18:49 13.16475 -59.69155 11964 ft 239 kts 294°
2026-04-23 18:49 13.17251 -59.70707 11980 ft 249 kts 296°
2026-04-23 18:49 13.18084 -59.72300 11986 ft 257 kts 296°
2026-04-23 18:49 13.18890 -59.73936 11981 ft 262 kts 294°
2026-04-23 18:50 13.19415 -59.75085 11983 ft 265 kts 293°
2026-04-23 18:50 13.20421 -59.77386 11983 ft 268 kts 292°
2026-04-23 18:50 13.21193 -59.79139 11981 ft 271 kts 293°
2026-04-23 18:50 13.21975 -59.80903 11987 ft 272 kts 293°
2026-04-23 18:51 13.22759 -59.82670 11990 ft 273 kts 293°
2026-04-23 18:51 13.23550 -59.84447 11982 ft 273 kts 293°
2026-04-23 18:51 13.24339 -59.86225 11986 ft 274 kts 293°
2026-04-23 18:51 13.25127 -59.88006 11983 ft 274 kts 293°
2026-04-23 18:52 13.25916 -59.89790 11983 ft 274 kts 293°
2026-04-23 18:52 13.26698 -59.91551 11979 ft 274 kts 293°
2026-04-23 18:52 13.27489 -59.93334 11987 ft 274 kts 293°
2026-04-23 18:52 13.28279 -59.95120 11979 ft 275 kts 293°
2026-04-23 18:53 13.29069 -59.96905 11982 ft 275 kts 293°
2026-04-23 18:53 13.29861 -59.98696 11977 ft 275 kts 293°
2026-04-23 18:53 13.30653 -60.00486 11979 ft 275 kts 293°
2026-04-23 18:53 13.31444 -60.02273 11982 ft 275 kts 293°
2026-04-23 18:54 13.32224 -60.04039 11979 ft 275 kts 293°
2026-04-23 18:54 13.33016 -60.05831 11982 ft 275 kts 292°
2026-04-23 18:54 13.33804 -60.07620 11985 ft 275 kts 293°
2026-04-23 18:54 13.34595 -60.09411 11984 ft 275 kts 293°
2026-04-23 18:55 13.35390 -60.11205 11981 ft 275 kts 293°
2026-04-23 18:55 13.36173 -60.12975 11982 ft 275 kts 293°
2026-04-23 18:55 13.36964 -60.14765 11981 ft 275 kts 293°
2026-04-23 18:55 13.37756 -60.16559 11981 ft 275 kts 293°
2026-04-23 18:56 13.38280 -60.17747 11994 ft 275 kts 293°
2026-04-23 18:56 13.39340 -60.20151 11992 ft 275 kts 293°
2026-04-23 18:56 13.40122 -60.21923 11992 ft 275 kts 293°
2026-04-23 18:56 13.40915 -60.23721 11986 ft 275 kts 293°
2026-04-23 18:57 13.41705 -60.25518 11991 ft 275 kts 292°
2026-04-23 18:57 13.42496 -60.27313 11991 ft 275 kts 293°
2026-04-23 18:57 13.43277 -60.29084 11999 ft 275 kts 293°
2026-04-23 18:57 13.44068 -60.30875 11999 ft 275 kts 292°
2026-04-23 18:58 13.44857 -60.32667 11994 ft 275 kts 293°
2026-04-23 18:58 13.45647 -60.34458 11993 ft 275 kts 293°
2026-04-23 18:58 13.46435 -60.36248 11992 ft 275 kts 292°
2026-04-23 18:58 13.47221 -60.38039 11997 ft 275 kts 292°
2026-04-23 18:59 13.48009 -60.39827 11993 ft 275 kts 292°
2026-04-23 18:59 13.48798 -60.41617 11996 ft 274 kts 292°
2026-04-23 18:59 13.49582 -60.43404 11998 ft 274 kts 292°
2026-04-23 18:59 13.50367 -60.45190 11996 ft 274 kts 293°
2026-04-23 19:00 13.51155 -60.46977 12008 ft 274 kts 293°
2026-04-23 19:00 13.51941 -60.48768 12003 ft 274 kts 292°
2026-04-23 19:00 13.52726 -60.50554 12002 ft 274 kts 292°
2026-04-23 19:00 13.53513 -60.52340 12006 ft 274 kts 292°
2026-04-23 19:01 13.54288 -60.54108 12005 ft 274 kts 292°
2026-04-23 19:01 13.55074 -60.55897 11999 ft 275 kts 293°
2026-04-23 19:01 13.55863 -60.57686 12002 ft 275 kts 293°
2026-04-23 19:01 13.56654 -60.59475 12003 ft 275 kts 292°
2026-04-23 19:02 13.57168 -60.60664 12002 ft 274 kts 292°
2026-04-23 19:02 13.58215 -60.63060 12005 ft 274 kts 292°
2026-04-23 19:02 13.58992 -60.64827 12017 ft 274 kts 292°
2026-04-23 19:02 13.59777 -60.66614 12016 ft 274 kts 292°
2026-04-23 19:03 13.60557 -60.68406 12007 ft 274 kts 292°
2026-04-23 19:03 13.61342 -60.70198 12009 ft 274 kts 292°
2026-04-23 19:03 13.62128 -60.71990 12007 ft 274 kts 292°
2026-04-23 19:03 13.62911 -60.73784 12007 ft 275 kts 292°
2026-04-23 19:04 13.63687 -60.75552 12014 ft 275 kts 292°
2026-04-23 19:04 13.64469 -60.77342 12015 ft 275 kts 292°
2026-04-23 19:04 13.65254 -60.79137 12011 ft 275 kts 292°
2026-04-23 19:04 13.66164 -60.80842 11958 ft 275 kts 309°
2026-04-23 19:05 13.67714 -60.82080 11585 ft 290 kts 326°
2026-04-23 19:05 13.69487 -60.83164 11185 ft 301 kts 328°
2026-04-23 19:05 13.70694 -60.83866 10923 ft 295 kts 329°
2026-04-23 19:05 13.73125 -60.85012 10386 ft 287 kts 335°
2026-04-23 19:06 13.74924 -60.85837 10135 ft 276 kts 333°
2026-04-23 19:06 13.76622 -60.86661 9965 ft 266 kts 332°
2026-04-23 19:06 13.77744 -60.87211 9734 ft 262 kts 332°
2026-04-23 19:06 13.79350 -60.88001 9335 ft 256 kts 332°
2026-04-23 19:07 13.80942 -60.88790 8901 ft 251 kts 332°
2026-04-23 19:07 13.82503 -60.89565 8479 ft 246 kts 332°
2026-04-23 19:07 13.84029 -60.90329 8064 ft 242 kts 331°
2026-04-23 19:07 13.85541 -60.91079 7653 ft 240 kts 332°
2026-04-23 19:08 13.86970 -60.91914 7244 ft 232 kts 316°
2026-04-23 19:08 13.87866 -60.93248 6857 ft 225 kts 297°
2026-04-23 19:08 13.88635 -60.94661 6457 ft 226 kts 298°
2026-04-23 19:08 13.89438 -60.96035 6041 ft 224 kts 297°
2026-04-23 19:09 13.89801 -60.97562 5614 ft 219 kts 276°
2026-04-23 19:09 13.89983 -60.99127 5195 ft 220 kts 279°
2026-04-23 19:09 13.90300 -61.00679 4790 ft 222 kts 283°
2026-04-23 19:09 13.90667 -61.02226 4377 ft 223 kts 284°
2026-04-23 19:10 13.91044 -61.03786 3909 ft 225 kts 282°
2026-04-23 19:10 13.91196 -61.05399 3410 ft 229 kts 273°
2026-04-23 19:10 13.91254 -61.07057 2906 ft 234 kts 271°
2026-04-23 19:10 13.91529 -61.08683 2392 ft 232 kts 297°
2026-04-23 19:11 13.92628 -61.09850 2012 ft 225 kts 329°
2026-04-23 19:11 13.93929 -61.10605 1903 ft 209 kts 333°
2026-04-23 19:11 13.95271 -61.10847 1852 ft 192 kts 13°
2026-04-23 19:11 13.96453 -61.10346 1825 ft 178 kts 26°
2026-04-23 19:12 13.97513 -61.09787 1835 ft 160 kts 36°
2026-04-23 19:12 13.98188 -61.08938 1753 ft 154 kts 60°
2026-04-23 19:12 13.98718 -61.07962 1555 ft 158 kts 60°
2026-04-23 19:12 13.99265 -61.06975 1381 ft 159 kts 60°
2026-04-23 19:13 13.99817 -61.05988 1199 ft 160 kts 62°
2026-04-23 19:13 14.00287 -61.05032 1153 ft 143 kts 64°
2026-04-23 19:13 14.00708 -61.04118 900 ft 139 kts 68°
2026-04-23 19:13 14.01009 -61.03213 669 ft 131 kts 77°
2026-04-23 19:14 14.01204 -61.02349 565 ft 119 kts 77°
2026-04-23 19:14 14.01421 -61.01539 364 ft 114 kts 77°
2026-04-23 19:14 14.01627 -61.00757 181 ft 113 kts 78°
2026-04-23 19:14 14.01818 -60.99997 49 ft 105 kts 77°
2026-04-23 19:15 14.01995 -60.99313 23 ft 93 kts 77°
2026-04-23 19:15 14.02056 -60.99097 24 ft 13 kts 65°
2026-04-23 19:15 14.02083 -60.99040 27 ft 3 kts 89°
2026-04-23 19:15 14.02071 -60.99046 26 ft 7 kts 238°
2026-04-23 19:16 14.02036 -60.99163 24 ft 21 kts 255°
2026-04-23 19:16 14.02000 -60.99309 21 ft 21 kts 255°
2026-04-23 19:16 14.01972 -60.99417 22 ft 10 kts 258°
2026-04-23 19:17 14.01999 -60.99560 24 ft 8 kts 256°
2026-04-23 19:17 14.02008 -60.99577 28 ft 4 kts 337°
2026-04-23 19:17 14.02030 -60.99578 24 ft 1 kts 37°
2026-04-23 19:17 14.02028 -60.99563 26 ft 3 kts 104°
2026-04-23 19:18 14.02024 -60.99560 25 ft 2 kts 143°
2026-04-23 19:18 14.02023 -60.99559 25 ft 0 kts 148°